Year,Month,Day,Hour,Minute,Value (Times are PST for temperature in C)
2021,04,18,00,00,12.30
2021,04,18,00,01,12.30
2021,04,18,00,02,12.30
2021,04,18,00,03,12.30
2021,04,18,00,04,12.30
2021,04,18,00,05,12.30
2021,04,18,00,06,12.30
2021,04,18,00,07,12.30
2021,04,18,00,08,12.30
2021,04,18,00,09,12.20
2021,04,18,00,10,12.20
2021,04,18,00,11,12.20
2021,04,18,00,12,12.20
2021,04,18,00,13,12.10
2021,04,18,00,14,12.10
2021,04,18,00,15,12.10
2021,04,18,00,16,12.10
2021,04,18,00,17,12.00
2021,04,18,00,18,12.00
2021,04,18,00,19,11.90
2021,04,18,00,20,11.90
2021,04,18,00,21,11.90
2021,04,18,00,22,11.80
2021,04,18,00,23,11.80
2021,04,18,00,24,11.80
2021,04,18,00,25,11.70
2021,04,18,00,26,11.70
2021,04,18,00,27,11.70
2021,04,18,00,28,11.70
2021,04,18,00,29,11.60
2021,04,18,00,30,11.60
2021,04,18,00,31,11.60
2021,04,18,00,32,11.60
2021,04,18,00,33,11.60
2021,04,18,00,34,11.60
2021,04,18,00,35,11.60
2021,04,18,00,36,11.50
2021,04,18,00,37,11.50
2021,04,18,00,38,11.50
2021,04,18,00,39,11.50
2021,04,18,00,40,11.50
2021,04,18,00,41,11.50
2021,04,18,00,42,11.50
2021,04,18,00,43,11.50
2021,04,18,00,44,11.50
2021,04,18,00,45,11.50
2021,04,18,00,46,11.50
2021,04,18,00,47,11.50
2021,04,18,00,48,11.40
2021,04,18,00,49,11.40
2021,04,18,00,50,11.40
2021,04,18,00,51,11.40
2021,04,18,00,52,11.40
2021,04,18,00,53,11.40
2021,04,18,00,54,11.40
2021,04,18,00,55,11.40
2021,04,18,00,56,11.40
2021,04,18,00,57,11.40
2021,04,18,00,58,11.40
2021,04,18,00,59,11.40
2021,04,18,01,00,11.40
2021,04,18,01,01,11.40
2021,04,18,01,02,11.40
2021,04,18,01,03,11.40
2021,04,18,01,04,11.40
2021,04,18,01,05,11.40
2021,04,18,01,06,11.40
2021,04,18,01,07,11.40
2021,04,18,01,08,11.40
2021,04,18,01,09,11.40
2021,04,18,01,10,11.30
2021,04,18,01,11,11.30
2021,04,18,01,12,11.30
2021,04,18,01,13,11.30
2021,04,18,01,14,11.30
2021,04,18,01,15,11.30
2021,04,18,01,16,11.30
2021,04,18,01,17,11.20
2021,04,18,01,18,11.20
2021,04,18,01,19,11.20
2021,04,18,01,20,11.20
2021,04,18,01,21,11.20
2021,04,18,01,22,11.10
2021,04,18,01,23,11.10
2021,04,18,01,24,11.10
2021,04,18,01,25,11.10
2021,04,18,01,26,11.10
2021,04,18,01,27,11.10
2021,04,18,01,28,11.00
2021,04,18,01,29,11.00
2021,04,18,01,30,11.00
2021,04,18,01,31,11.00
2021,04,18,01,32,11.00
2021,04,18,01,33,10.90
2021,04,18,01,34,10.90
2021,04,18,01,35,10.90
2021,04,18,01,36,10.90
2021,04,18,01,37,10.90
2021,04,18,01,38,10.90
2021,04,18,01,39,10.90
2021,04,18,01,40,10.80
2021,04,18,01,41,10.80
2021,04,18,01,42,10.80
2021,04,18,01,43,10.80
2021,04,18,01,44,10.80
2021,04,18,01,45,10.80
2021,04,18,01,46,10.80
2021,04,18,01,47,10.80
2021,04,18,01,48,10.70
2021,04,18,01,49,10.70
2021,04,18,01,50,10.70
2021,04,18,01,51,10.70
2021,04,18,01,52,10.70
2021,04,18,01,53,10.70
2021,04,18,01,54,10.70
2021,04,18,01,55,10.60
2021,04,18,01,56,10.60
2021,04,18,01,57,10.60
2021,04,18,01,58,10.60
2021,04,18,01,59,10.60
2021,04,18,02,00,10.60
2021,04,18,02,01,10.60
2021,04,18,02,02,10.60
2021,04,18,02,03,10.60
2021,04,18,02,04,10.60
2021,04,18,02,05,10.60
2021,04,18,02,06,10.60
2021,04,18,02,07,10.50
2021,04,18,02,08,10.50
2021,04,18,02,09,10.50
2021,04,18,02,10,10.50
2021,04,18,02,11,10.50
2021,04,18,02,12,10.50
2021,04,18,02,13,10.50
2021,04,18,02,14,10.50
2021,04,18,02,15,10.50
2021,04,18,02,16,10.50
2021,04,18,02,17,10.50
2021,04,18,02,18,10.50
2021,04,18,02,19,10.50
2021,04,18,02,20,10.50
2021,04,18,02,21,10.50
2021,04,18,02,22,10.50
2021,04,18,02,23,10.60
2021,04,18,02,24,10.60
2021,04,18,02,25,10.60
2021,04,18,02,26,10.60
2021,04,18,02,27,10.60
2021,04,18,02,28,10.60
2021,04,18,02,29,10.50
2021,04,18,02,30,10.50
2021,04,18,02,31,10.50
2021,04,18,02,32,10.50
2021,04,18,02,33,10.40
2021,04,18,02,34,10.40
2021,04,18,02,35,10.40
2021,04,18,02,36,10.30
2021,04,18,02,37,10.30
2021,04,18,02,38,10.30
2021,04,18,02,39,10.30
2021,04,18,02,40,10.30
2021,04,18,02,41,10.30
2021,04,18,02,42,10.30
2021,04,18,02,43,10.30
2021,04,18,02,44,10.20
2021,04,18,02,45,10.10
2021,04,18,02,46,10.00
2021,04,18,02,47,10.00
2021,04,18,02,48,9.90
2021,04,18,02,49,9.90
2021,04,18,02,50,9.90
2021,04,18,02,51,9.80
2021,04,18,02,52,9.80
2021,04,18,02,53,9.80
2021,04,18,02,54,9.80
2021,04,18,02,55,9.70
2021,04,18,02,56,9.70
2021,04,18,02,57,9.70
2021,04,18,02,58,9.70
2021,04,18,02,59,9.70
2021,04,18,03,00,9.60
2021,04,18,03,01,9.60
2021,04,18,03,02,9.60
2021,04,18,03,03,9.60
2021,04,18,03,04,9.60
2021,04,18,03,05,9.60
2021,04,18,03,06,9.60
2021,04,18,03,07,9.60
2021,04,18,03,08,9.60
2021,04,18,03,09,9.60
2021,04,18,03,10,9.60
2021,04,18,03,11,9.50
2021,04,18,03,12,9.50
2021,04,18,03,13,9.50
2021,04,18,03,14,9.40
2021,04,18,03,15,9.40
2021,04,18,03,16,9.40
2021,04,18,03,17,9.40
2021,04,18,03,18,9.40
2021,04,18,03,19,9.40
2021,04,18,03,20,9.30
2021,04,18,03,21,9.30
2021,04,18,03,22,9.30
2021,04,18,03,23,9.30
2021,04,18,03,24,9.30
2021,04,18,03,25,9.30
2021,04,18,03,26,9.20
2021,04,18,03,27,9.20
2021,04,18,03,28,9.20
2021,04,18,03,29,9.20
2021,04,18,03,30,9.20
2021,04,18,03,31,9.10
2021,04,18,03,32,9.10
2021,04,18,03,33,9.10
2021,04,18,03,34,9.10
2021,04,18,03,35,9.10
2021,04,18,03,36,9.00
2021,04,18,03,37,9.00
2021,04,18,03,38,9.00
2021,04,18,03,39,9.00
2021,04,18,03,40,9.00
2021,04,18,03,41,8.90
2021,04,18,03,42,8.90
2021,04,18,03,43,8.90
2021,04,18,03,44,8.90
2021,04,18,03,45,8.90
2021,04,18,03,46,8.90
2021,04,18,03,47,8.80
2021,04,18,03,48,8.80
2021,04,18,03,49,8.90
2021,04,18,03,50,8.90
2021,04,18,03,51,8.90
2021,04,18,03,52,8.90
2021,04,18,03,53,8.90
2021,04,18,03,54,8.90
2021,04,18,03,55,9.00
2021,04,18,03,56,9.00
2021,04,18,03,57,9.00
2021,04,18,03,58,9.00
2021,04,18,03,59,9.00
2021,04,18,04,00,9.00
2021,04,18,04,01,9.00
2021,04,18,04,02,9.00
2021,04,18,04,03,9.00
2021,04,18,04,04,9.00
2021,04,18,04,05,9.00
2021,04,18,04,06,9.00
2021,04,18,04,07,9.00
2021,04,18,04,08,9.00
2021,04,18,04,09,9.00
2021,04,18,04,10,8.90
2021,04,18,04,11,8.90
2021,04,18,04,12,8.90
2021,04,18,04,13,8.90
2021,04,18,04,14,8.90
2021,04,18,04,15,8.90
2021,04,18,04,16,8.90
2021,04,18,04,17,8.90
2021,04,18,04,18,8.90
2021,04,18,04,19,8.90
2021,04,18,04,20,8.90
2021,04,18,04,21,8.90
2021,04,18,04,22,8.90
2021,04,18,04,23,8.80
2021,04,18,04,24,8.80
2021,04,18,04,25,8.80
2021,04,18,04,26,8.80
2021,04,18,04,27,8.80
2021,04,18,04,28,8.70
2021,04,18,04,29,8.70
2021,04,18,04,30,8.70
2021,04,18,04,31,8.70
2021,04,18,04,32,8.60
2021,04,18,04,33,8.60
2021,04,18,04,34,8.60
2021,04,18,04,35,8.60
2021,04,18,04,36,8.60
2021,04,18,04,37,8.50
2021,04,18,04,38,8.50
2021,04,18,04,39,8.50
2021,04,18,04,40,8.50
2021,04,18,04,41,8.50
2021,04,18,04,42,8.50
2021,04,18,04,43,8.60
2021,04,18,04,44,8.60
2021,04,18,04,45,8.50
2021,04,18,04,46,8.50
2021,04,18,04,47,8.50
2021,04,18,04,48,8.50
2021,04,18,04,49,8.40
2021,04,18,04,50,8.40
2021,04,18,04,51,8.40
2021,04,18,04,52,8.40
2021,04,18,04,53,8.40
2021,04,18,04,54,8.40
2021,04,18,04,55,8.40
2021,04,18,04,56,8.40
2021,04,18,04,57,8.30
2021,04,18,04,58,8.30
2021,04,18,04,59,8.30
2021,04,18,05,00,8.30
2021,04,18,05,01,8.30
2021,04,18,05,02,8.30
2021,04,18,05,03,8.30
2021,04,18,05,04,8.30
2021,04,18,05,05,8.30
2021,04,18,05,06,8.30
2021,04,18,05,07,8.30
2021,04,18,05,08,8.30
2021,04,18,05,09,8.30
2021,04,18,05,10,8.30
2021,04,18,05,11,8.30
2021,04,18,05,12,8.30
2021,04,18,05,13,8.30
2021,04,18,05,14,8.30
2021,04,18,05,15,8.30
2021,04,18,05,16,8.30
2021,04,18,05,17,8.30
2021,04,18,05,18,8.30
2021,04,18,05,19,8.30
2021,04,18,05,20,8.30
2021,04,18,05,21,8.30
2021,04,18,05,22,8.30
2021,04,18,05,23,8.30
2021,04,18,05,24,8.30
2021,04,18,05,25,8.30
2021,04,18,05,26,8.30
2021,04,18,05,27,8.30
2021,04,18,05,28,8.30
2021,04,18,05,29,8.20
2021,04,18,05,30,8.20
2021,04,18,05,31,8.20
2021,04,18,05,32,8.20
2021,04,18,05,33,8.20
2021,04,18,05,34,8.20
2021,04,18,05,35,8.20
2021,04,18,05,36,8.20
2021,04,18,05,37,8.20
2021,04,18,05,38,8.20
2021,04,18,05,39,8.20
2021,04,18,05,40,8.20
2021,04,18,05,41,8.20
2021,04,18,05,42,8.20
2021,04,18,05,43,8.20
2021,04,18,05,44,8.20
2021,04,18,05,45,8.20
2021,04,18,05,46,8.20
2021,04,18,05,47,8.20
2021,04,18,05,48,8.20
2021,04,18,05,49,8.20
2021,04,18,05,50,8.20
2021,04,18,05,51,8.20
2021,04,18,05,52,8.20
2021,04,18,05,53,8.20
2021,04,18,05,54,8.20
2021,04,18,05,55,8.20
2021,04,18,05,56,8.10
2021,04,18,05,57,8.10
2021,04,18,05,58,8.10
2021,04,18,05,59,8.10
2021,04,18,06,00,8.00
2021,04,18,06,01,8.00
2021,04,18,06,02,8.00
2021,04,18,06,03,7.90
2021,04,18,06,04,7.90
2021,04,18,06,05,7.90
2021,04,18,06,06,7.90
2021,04,18,06,07,7.90
2021,04,18,06,08,7.90
2021,04,18,06,09,7.90
2021,04,18,06,10,7.80
2021,04,18,06,11,7.80
2021,04,18,06,12,7.80
2021,04,18,06,13,7.80
2021,04,18,06,14,7.80
2021,04,18,06,15,7.80
2021,04,18,06,16,7.80
2021,04,18,06,17,7.80
2021,04,18,06,18,7.80
2021,04,18,06,19,7.80
2021,04,18,06,20,7.80
2021,04,18,06,21,7.80
2021,04,18,06,22,7.80
2021,04,18,06,23,7.80
2021,04,18,06,24,7.80
2021,04,18,06,25,7.80
2021,04,18,06,26,7.80
2021,04,18,06,27,7.80
2021,04,18,06,28,7.80
2021,04,18,06,29,7.80
2021,04,18,06,30,7.80
2021,04,18,06,31,7.80
2021,04,18,06,32,7.80
2021,04,18,06,33,7.80
2021,04,18,06,34,7.80
2021,04,18,06,35,7.80
2021,04,18,06,36,7.80
2021,04,18,06,37,7.80
2021,04,18,06,38,7.80
2021,04,18,06,39,7.80
2021,04,18,06,40,7.80
2021,04,18,06,41,7.80
2021,04,18,06,42,7.70
2021,04,18,06,43,7.70
2021,04,18,06,44,7.70
2021,04,18,06,45,7.70
2021,04,18,06,46,7.70
2021,04,18,06,47,7.70
2021,04,18,06,48,7.70
2021,04,18,06,49,7.70
2021,04,18,06,50,7.70
2021,04,18,06,51,7.70
2021,04,18,06,52,7.70
2021,04,18,06,53,7.70
2021,04,18,06,54,7.70
2021,04,18,06,55,7.70
2021,04,18,06,56,7.70
2021,04,18,06,57,7.70
2021,04,18,06,58,7.70
2021,04,18,06,59,7.70
2021,04,18,07,00,7.70
2021,04,18,07,01,7.70
2021,04,18,07,02,7.70
2021,04,18,07,03,7.70
2021,04,18,07,04,7.80
2021,04,18,07,05,7.80
2021,04,18,07,06,7.80
2021,04,18,07,07,7.80
2021,04,18,07,08,7.80
2021,04,18,07,09,7.90
2021,04,18,07,10,7.90
2021,04,18,07,11,7.90
2021,04,18,07,12,7.90
2021,04,18,07,13,7.90
2021,04,18,07,14,7.90
2021,04,18,07,15,7.90
2021,04,18,07,16,7.90
2021,04,18,07,17,7.90
2021,04,18,07,18,7.90
2021,04,18,07,19,7.90
2021,04,18,07,20,7.90
2021,04,18,07,21,8.00
2021,04,18,07,22,8.00
2021,04,18,07,23,8.00
2021,04,18,07,24,8.00
2021,04,18,07,25,8.00
2021,04,18,07,26,8.00
2021,04,18,07,27,8.00
2021,04,18,07,28,8.10
2021,04,18,07,29,8.10
2021,04,18,07,30,8.10
2021,04,18,07,31,8.10
2021,04,18,07,32,8.10
2021,04,18,07,33,8.20
2021,04,18,07,34,8.20
2021,04,18,07,35,8.20
2021,04,18,07,36,8.20
2021,04,18,07,37,8.20
2021,04,18,07,38,8.20
2021,04,18,07,39,8.20
2021,04,18,07,40,8.20
2021,04,18,07,41,8.30
2021,04,18,07,42,8.30
2021,04,18,07,43,8.30
2021,04,18,07,44,8.30
2021,04,18,07,45,8.40
2021,04,18,07,46,8.40
2021,04,18,07,47,8.40
2021,04,18,07,48,8.50
2021,04,18,07,49,8.50
2021,04,18,07,50,8.50
2021,04,18,07,51,8.60
2021,04,18,07,52,8.60
2021,04,18,07,53,8.60
2021,04,18,07,54,8.70
2021,04,18,07,55,8.70
2021,04,18,07,56,8.70
2021,04,18,07,57,8.70
2021,04,18,07,58,8.70
2021,04,18,07,59,8.80
2021,04,18,08,00,8.80
2021,04,18,08,01,8.80
2021,04,18,08,02,8.90
2021,04,18,08,03,8.90
2021,04,18,08,04,9.00
2021,04,18,08,05,9.00
2021,04,18,08,06,9.10
2021,04,18,08,07,9.10
2021,04,18,08,08,9.10
2021,04,18,08,09,9.20
2021,04,18,08,10,9.20
2021,04,18,08,11,9.30
2021,04,18,08,12,9.30
2021,04,18,08,13,9.40
2021,04,18,08,14,9.40
2021,04,18,08,15,9.50
2021,04,18,08,16,9.60
2021,04,18,08,17,9.60
2021,04,18,08,18,9.70
2021,04,18,08,19,9.70
2021,04,18,08,20,9.80
2021,04,18,08,21,9.90
2021,04,18,08,22,9.90
2021,04,18,08,23,10.00
2021,04,18,08,24,10.10
2021,04,18,08,25,10.10
2021,04,18,08,26,10.20
2021,04,18,08,27,10.30
2021,04,18,08,28,10.30
2021,04,18,08,29,10.40
2021,04,18,08,30,10.40
2021,04,18,08,31,10.50
2021,04,18,08,32,10.50
2021,04,18,08,33,10.60
2021,04,18,08,34,10.70
2021,04,18,08,35,10.70
2021,04,18,08,36,10.80
2021,04,18,08,37,10.90
2021,04,18,08,38,10.90
2021,04,18,08,39,11.00
2021,04,18,08,40,11.10
2021,04,18,08,41,11.20
2021,04,18,08,42,11.20
2021,04,18,08,43,11.30
2021,04,18,08,44,11.40
2021,04,18,08,45,11.40
2021,04,18,08,46,11.50
2021,04,18,08,47,11.60
2021,04,18,08,48,11.60
2021,04,18,08,49,11.70
2021,04,18,08,50,11.80
2021,04,18,08,51,11.90
2021,04,18,08,52,11.90
2021,04,18,08,53,12.00
2021,04,18,08,54,12.10
2021,04,18,08,55,12.10
2021,04,18,08,56,12.20
2021,04,18,08,57,12.30
2021,04,18,08,58,12.30
2021,04,18,08,59,12.40
2021,04,18,09,00,12.40
2021,04,18,09,01,12.50
2021,04,18,09,02,12.60
2021,04,18,09,03,12.60
2021,04,18,09,04,12.70
2021,04,18,09,05,12.80
2021,04,18,09,06,12.80
2021,04,18,09,07,12.90
2021,04,18,09,08,12.90
2021,04,18,09,09,13.00
2021,04,18,09,10,13.10
2021,04,18,09,11,13.10
2021,04,18,09,12,13.20
2021,04,18,09,13,13.20
2021,04,18,09,14,13.30
2021,04,18,09,15,13.40
2021,04,18,09,16,13.40
2021,04,18,09,17,13.50
2021,04,18,09,18,13.60
2021,04,18,09,19,13.60
2021,04,18,09,20,13.70
2021,04,18,09,21,13.70
2021,04,18,09,22,13.80
2021,04,18,09,23,13.80
2021,04,18,09,24,13.90
2021,04,18,09,25,13.90
2021,04,18,09,26,14.00
2021,04,18,09,27,14.10
2021,04,18,09,28,14.20
2021,04,18,09,29,14.20
2021,04,18,09,30,14.30
2021,04,18,09,31,14.50
2021,04,18,09,32,14.60
2021,04,18,09,33,14.70
2021,04,18,09,34,14.80
2021,04,18,09,35,15.00
2021,04,18,09,36,15.00
2021,04,18,09,37,15.00
2021,04,18,09,38,15.20
2021,04,18,09,39,15.30
2021,04,18,09,40,15.50
2021,04,18,09,41,15.60
2021,04,18,09,42,15.70
2021,04,18,09,43,15.80
2021,04,18,09,44,16.00
2021,04,18,09,45,16.20
2021,04,18,09,46,16.40
2021,04,18,09,47,16.50
2021,04,18,09,48,16.70
2021,04,18,09,49,16.90
2021,04,18,09,50,17.00
2021,04,18,09,51,17.10
2021,04,18,09,52,17.20
2021,04,18,09,53,17.20
2021,04,18,09,54,17.30
2021,04,18,09,55,17.30
2021,04,18,09,56,17.30
2021,04,18,09,57,17.30
2021,04,18,09,58,17.30
2021,04,18,09,59,17.30
2021,04,18,10,00,17.40
2021,04,18,10,01,17.40
2021,04,18,10,02,17.40
2021,04,18,10,03,17.40
2021,04,18,10,04,17.40
2021,04,18,10,05,17.50
2021,04,18,10,06,17.50
2021,04,18,10,07,17.50
2021,04,18,10,08,17.50
2021,04,18,10,09,17.60
2021,04,18,10,10,17.60
2021,04,18,10,11,17.60
2021,04,18,10,12,17.60
2021,04,18,10,13,17.60
2021,04,18,10,14,17.60
2021,04,18,10,15,17.70
2021,04,18,10,16,17.70
2021,04,18,10,17,17.70
2021,04,18,10,18,17.70
2021,04,18,10,19,17.70
2021,04,18,10,20,17.70
2021,04,18,10,21,17.70
2021,04,18,10,22,17.70
2021,04,18,10,23,17.70
2021,04,18,10,24,17.70
2021,04,18,10,25,17.80
2021,04,18,10,26,17.80
2021,04,18,10,27,17.90
2021,04,18,10,28,17.90
2021,04,18,10,29,18.00
2021,04,18,10,30,18.10
2021,04,18,10,31,18.10
2021,04,18,10,32,18.10
2021,04,18,10,33,18.10
2021,04,18,10,34,18.20
2021,04,18,10,35,18.30
2021,04,18,10,36,18.30
2021,04,18,10,37,18.30
2021,04,18,10,38,18.30
2021,04,18,10,39,18.30
2021,04,18,10,40,18.40
2021,04,18,10,41,18.40
2021,04,18,10,42,18.50
2021,04,18,10,43,18.50
2021,04,18,10,44,18.60
2021,04,18,10,45,18.60
2021,04,18,10,46,18.70
2021,04,18,10,47,18.70
2021,04,18,10,48,18.80
2021,04,18,10,49,18.80
2021,04,18,10,50,18.80
2021,04,18,10,51,18.80
2021,04,18,10,52,18.90
2021,04,18,10,53,18.90
2021,04,18,10,54,18.90
2021,04,18,10,55,19.00
2021,04,18,10,56,19.00
2021,04,18,10,57,19.10
2021,04,18,10,58,19.10
2021,04,18,10,59,19.10
2021,04,18,11,00,19.20
2021,04,18,11,01,19.20
2021,04,18,11,02,19.30
2021,04,18,11,03,19.30
2021,04,18,11,04,19.30
2021,04,18,11,05,19.30
2021,04,18,11,06,19.40
2021,04,18,11,07,19.50
2021,04,18,11,08,19.60
2021,04,18,11,09,19.80
2021,04,18,11,10,19.90
2021,04,18,11,11,20.00
2021,04,18,11,12,20.20
2021,04,18,11,13,20.20
2021,04,18,11,14,20.30
2021,04,18,11,15,20.30
2021,04,18,11,16,20.50
2021,04,18,11,17,20.60
2021,04,18,11,18,20.70
2021,04,18,11,19,20.80
2021,04,18,11,20,20.90
2021,04,18,11,21,21.10
2021,04,18,11,22,21.20
2021,04,18,11,23,21.20
2021,04,18,11,24,21.30
2021,04,18,11,25,21.30
2021,04,18,11,26,21.30
2021,04,18,11,27,21.30
2021,04,18,11,28,21.30
2021,04,18,11,29,21.30
2021,04,18,11,30,21.30
2021,04,18,11,31,21.40
2021,04,18,11,32,21.40
2021,04,18,11,33,21.40
2021,04,18,11,34,21.50
2021,04,18,11,35,21.50
2021,04,18,11,36,21.60
2021,04,18,11,37,21.70
2021,04,18,11,38,21.70
2021,04,18,11,39,21.70
2021,04,18,11,40,21.70
2021,04,18,11,41,21.70
2021,04,18,11,42,21.60
2021,04,18,11,43,21.50
2021,04,18,11,44,21.50
2021,04,18,11,45,21.40
2021,04,18,11,46,21.40
2021,04,18,11,47,21.40
2021,04,18,11,48,21.40
2021,04,18,11,49,21.40
2021,04,18,11,50,21.50
2021,04,18,11,51,21.50
2021,04,18,11,52,21.60
2021,04,18,11,53,21.60
2021,04,18,11,54,21.60
2021,04,18,11,55,21.70
2021,04,18,11,56,21.70
2021,04,18,11,57,21.70
2021,04,18,11,58,21.80
2021,04,18,11,59,21.80
2021,04,18,12,00,21.80
2021,04,18,12,01,21.70
2021,04,18,12,02,21.70
2021,04,18,12,03,21.70
2021,04,18,12,04,21.70
2021,04,18,12,05,21.70
2021,04,18,12,06,21.70
2021,04,18,12,07,21.70
2021,04,18,12,08,21.70
2021,04,18,12,09,21.70
2021,04,18,12,10,21.70
2021,04,18,12,11,21.70
2021,04,18,12,12,21.70
2021,04,18,12,13,21.70
2021,04,18,12,14,21.70
2021,04,18,12,15,21.60
2021,04,18,12,16,21.60
2021,04,18,12,17,21.50
2021,04,18,12,18,21.40
2021,04,18,12,19,21.40
2021,04,18,12,20,21.40
2021,04,18,12,21,21.40
2021,04,18,12,22,21.40
2021,04,18,12,23,21.30
2021,04,18,12,24,21.30
2021,04,18,12,25,21.40
2021,04,18,12,26,21.40
2021,04,18,12,27,21.50
2021,04,18,12,28,21.60
2021,04,18,12,29,21.70
2021,04,18,12,30,21.80
2021,04,18,12,31,21.80
2021,04,18,12,32,21.90
2021,04,18,12,33,22.00
2021,04,18,12,34,22.10
2021,04,18,12,35,22.10
2021,04,18,12,36,22.10
2021,04,18,12,37,22.10
2021,04,18,12,38,22.10
2021,04,18,12,39,22.10
2021,04,18,12,40,22.10
2021,04,18,12,41,22.10
2021,04,18,12,42,22.10
2021,04,18,12,43,22.20
2021,04,18,12,44,22.20
2021,04,18,12,45,22.20
2021,04,18,12,46,22.30
2021,04,18,12,47,22.30
2021,04,18,12,48,22.30
2021,04,18,12,49,22.40
2021,04,18,12,50,22.40
2021,04,18,12,51,22.40
2021,04,18,12,52,22.40
2021,04,18,12,53,22.30
2021,04,18,12,54,22.30
2021,04,18,12,55,22.30
2021,04,18,12,56,22.20
2021,04,18,12,57,22.20
2021,04,18,12,58,22.20
2021,04,18,12,59,22.20
2021,04,18,13,00,22.20
2021,04,18,13,01,22.20
2021,04,18,13,02,22.30
2021,04,18,13,03,22.30
2021,04,18,13,04,22.30
2021,04,18,13,05,22.30
2021,04,18,13,06,22.40
2021,04,18,13,07,22.50
2021,04,18,13,08,22.50
2021,04,18,13,09,22.60
2021,04,18,13,10,22.70
2021,04,18,13,11,22.80
2021,04,18,13,12,22.80
2021,04,18,13,13,22.80
2021,04,18,13,14,22.90
2021,04,18,13,15,22.90
2021,04,18,13,16,22.90
2021,04,18,13,17,22.90
2021,04,18,13,18,23.00
2021,04,18,13,19,23.00
2021,04,18,13,20,23.00
2021,04,18,13,21,23.00
2021,04,18,13,22,22.80
2021,04,18,13,23,22.70
2021,04,18,13,24,22.70
2021,04,18,13,25,22.60
2021,04,18,13,26,22.60
2021,04,18,13,27,22.60
2021,04,18,13,28,22.50
2021,04,18,13,29,22.50
2021,04,18,13,30,22.50
2021,04,18,13,31,22.60
2021,04,18,13,32,22.60
2021,04,18,13,33,22.60
2021,04,18,13,34,22.70
2021,04,18,13,35,22.70
2021,04,18,13,36,22.60
2021,04,18,13,37,22.60
2021,04,18,13,38,22.50
2021,04,18,13,39,22.50
2021,04,18,13,40,22.40
2021,04,18,13,41,22.40
2021,04,18,13,42,22.50
2021,04,18,13,43,22.50
2021,04,18,13,44,22.60
2021,04,18,13,45,22.70
2021,04,18,13,46,22.80
2021,04,18,13,47,23.00
2021,04,18,13,48,23.00
2021,04,18,13,49,23.10
2021,04,18,13,50,23.20
2021,04,18,13,51,23.30
2021,04,18,13,52,23.30
2021,04,18,13,53,23.40
2021,04,18,13,54,23.30
2021,04,18,13,55,23.30
2021,04,18,13,56,23.30
2021,04,18,13,57,23.30
2021,04,18,13,58,23.30
2021,04,18,13,59,23.30
2021,04,18,14,00,23.30
2021,04,18,14,01,23.30
2021,04,18,14,02,23.30
2021,04,18,14,03,23.30
2021,04,18,14,04,23.40
2021,04,18,14,05,23.40
2021,04,18,14,06,23.50
2021,04,18,14,07,23.50
2021,04,18,14,08,23.60
2021,04,18,14,09,23.60
2021,04,18,14,10,23.60
2021,04,18,14,11,23.70
2021,04,18,14,12,23.60
2021,04,18,14,13,23.60
2021,04,18,14,14,23.60
2021,04,18,14,15,23.60
2021,04,18,14,16,23.60
2021,04,18,14,17,23.60
2021,04,18,14,18,23.60
2021,04,18,14,19,23.70
2021,04,18,14,20,23.70
2021,04,18,14,21,23.80
2021,04,18,14,22,23.80
2021,04,18,14,23,23.80
2021,04,18,14,24,23.80
2021,04,18,14,25,23.90
2021,04,18,14,26,23.90
2021,04,18,14,27,24.00
2021,04,18,14,28,24.00
2021,04,18,14,29,24.00
2021,04,18,14,30,23.90
2021,04,18,14,31,23.90
2021,04,18,14,32,23.90
2021,04,18,14,33,23.90
2021,04,18,14,34,23.90
2021,04,18,14,35,23.90
2021,04,18,14,36,23.80
2021,04,18,14,37,23.80
2021,04,18,14,38,23.80
2021,04,18,14,39,23.70
2021,04,18,14,40,23.70
2021,04,18,14,41,23.70
2021,04,18,14,42,23.60
2021,04,18,14,43,23.60
2021,04,18,14,44,23.50
2021,04,18,14,45,23.40
2021,04,18,14,46,23.30
2021,04,18,14,47,23.30
2021,04,18,14,48,23.20
2021,04,18,14,49,23.20
2021,04,18,14,50,23.20
2021,04,18,14,51,23.20
2021,04,18,14,52,23.20
2021,04,18,14,53,23.20
2021,04,18,14,54,23.20
2021,04,18,14,55,23.10
2021,04,18,14,56,23.10
2021,04,18,14,57,23.10
2021,04,18,14,58,23.00
2021,04,18,14,59,23.00
2021,04,18,15,00,23.00
2021,04,18,15,01,23.00
2021,04,18,15,02,23.10
2021,04,18,15,03,23.20
2021,04,18,15,04,23.30
2021,04,18,15,05,23.20
2021,04,18,15,06,23.20
2021,04,18,15,07,23.20
2021,04,18,15,08,23.20
2021,04,18,15,09,23.20
2021,04,18,15,10,23.20
2021,04,18,15,11,23.20
2021,04,18,15,12,23.10
2021,04,18,15,13,22.90
2021,04,18,15,14,22.80
2021,04,18,15,15,22.70
2021,04,18,15,16,22.70
2021,04,18,15,17,22.70
2021,04,18,15,18,22.70
2021,04,18,15,19,22.70
2021,04,18,15,20,22.70
2021,04,18,15,21,22.70
2021,04,18,15,22,22.70
2021,04,18,15,23,22.70
2021,04,18,15,24,22.70
2021,04,18,15,25,22.70
2021,04,18,15,26,22.70
2021,04,18,15,27,22.70
2021,04,18,15,28,22.80
2021,04,18,15,29,22.80
2021,04,18,15,30,22.80
2021,04,18,15,31,22.80
2021,04,18,15,32,22.80
2021,04,18,15,33,22.80
2021,04,18,15,34,22.70
2021,04,18,15,35,22.70
2021,04,18,15,36,22.70
2021,04,18,15,37,22.70
2021,04,18,15,38,22.70
2021,04,18,15,39,22.70
2021,04,18,15,40,22.70
2021,04,18,15,41,22.70
2021,04,18,15,42,22.70
2021,04,18,15,43,22.80
2021,04,18,15,44,22.80
2021,04,18,15,45,22.80
2021,04,18,15,46,22.90
2021,04,18,15,47,22.90
2021,04,18,15,48,23.00
2021,04,18,15,49,23.00
2021,04,18,15,50,23.10
2021,04,18,15,51,23.10
2021,04,18,15,52,23.10
2021,04,18,15,53,23.10
2021,04,18,15,54,23.10
2021,04,18,15,55,23.00
2021,04,18,15,56,23.00
2021,04,18,15,57,22.90
2021,04,18,15,58,22.90
2021,04,18,15,59,22.90
2021,04,18,16,00,22.90
2021,04,18,16,01,22.80
2021,04,18,16,02,22.80
2021,04,18,16,03,22.70
2021,04,18,16,04,22.70
2021,04,18,16,05,22.70
2021,04,18,16,06,22.60
2021,04,18,16,07,22.60
2021,04,18,16,08,22.60
2021,04,18,16,09,22.60
2021,04,18,16,10,22.50
2021,04,18,16,11,22.40
2021,04,18,16,12,22.40
2021,04,18,16,13,22.40
2021,04,18,16,14,22.40
2021,04,18,16,15,22.40
2021,04,18,16,16,22.50
2021,04,18,16,17,22.50
2021,04,18,16,18,22.60
2021,04,18,16,19,22.60
2021,04,18,16,20,22.60
2021,04,18,16,21,22.70
2021,04,18,16,22,22.70
2021,04,18,16,23,22.70
2021,04,18,16,24,22.80
2021,04,18,16,25,22.80
2021,04,18,16,26,22.90
2021,04,18,16,27,22.90
2021,04,18,16,28,22.90
2021,04,18,16,29,23.00
2021,04,18,16,30,23.00
2021,04,18,16,31,23.00
2021,04,18,16,32,23.00
2021,04,18,16,33,23.10
2021,04,18,16,34,23.10
2021,04,18,16,35,23.20
2021,04,18,16,36,23.20
2021,04,18,16,37,23.30
2021,04,18,16,38,23.40
2021,04,18,16,39,23.50
2021,04,18,16,40,23.50
2021,04,18,16,41,23.60
2021,04,18,16,42,23.60
2021,04,18,16,43,23.60
2021,04,18,16,44,23.50
2021,04,18,16,45,23.30
2021,04,18,16,46,23.20
2021,04,18,16,47,23.20
2021,04,18,16,48,23.10
2021,04,18,16,49,23.00
2021,04,18,16,50,22.90
2021,04,18,16,51,22.80
2021,04,18,16,52,22.70
2021,04,18,16,53,22.70
2021,04,18,16,54,22.60
2021,04,18,16,55,22.60
2021,04,18,16,56,22.60
2021,04,18,16,57,22.60
2021,04,18,16,58,22.60
2021,04,18,16,59,22.60
2021,04,18,17,00,22.60
2021,04,18,17,01,22.60
2021,04,18,17,02,22.60
2021,04,18,17,03,22.60
2021,04,18,17,04,22.60
2021,04,18,17,05,22.60
2021,04,18,17,06,22.60
2021,04,18,17,07,22.70
2021,04,18,17,08,22.70
2021,04,18,17,09,22.70
2021,04,18,17,10,22.80
2021,04,18,17,11,22.80
2021,04,18,17,12,22.80
2021,04,18,17,13,22.80
2021,04,18,17,14,22.80
2021,04,18,17,15,22.70
2021,04,18,17,16,22.60
2021,04,18,17,17,22.60
2021,04,18,17,18,22.60
2021,04,18,17,19,22.70
2021,04,18,17,20,22.70
2021,04,18,17,21,22.70
2021,04,18,17,22,22.80
2021,04,18,17,23,22.80
2021,04,18,17,24,22.90
2021,04,18,17,25,23.00
2021,04,18,17,26,23.10
2021,04,18,17,27,23.20
2021,04,18,17,28,23.20
2021,04,18,17,29,23.20
2021,04,18,17,30,23.30
2021,04,18,17,31,23.30
2021,04,18,17,32,23.30
2021,04,18,17,33,23.30
2021,04,18,17,34,23.30